Theta_e
315 316 316 315 313 311 310 303 304 315 309 299 294 295 299 302 301 304 302 300 299 297 299 298 299 302 305 310 303 298 299 294 291 297 300 302 298 295 293 291 288 292 293 296
316 316 316 314 312 312 309 300 301 314 307 294 293 298 303 305 303 304 302 301 304 303 299 295 300 304 310 311 306 300 300 293 290 293 299 303 301 303 297 293 291 292 293 296
316 316 316 314 313 312 306 304 301 305 305 300 300 299 301 303 310 308 307 306 303 298 296 297 298 303 310 312 311 324 308 294 293 292 296 300 299 302 302 298 294 292 296 299
316 316 316 315 314 312 306 305 302 304 298 301 301 300 301 302 303 308 307 304 306 302 294 298 298 304 305 309 313 307 300 296 295 297 303 305 302 303 305 300 300 298 299 301
315 318 317 317 314 311 309 303 302 304 302 301 301 298 299 303 305 304 303 302 306 303 298 299 298 300 299 300 305 302 302 295 296 296 302 304 303 305 303 304 303 299 301 302
316 318 318 317 314 311 304 306 306 305 300 300 297 298 303 306 306 307 309 306 303 302 305 307 305 303 302 302 302 301 301 297 294 291 301 299 295 301 303 304 305 301 300 305
317 318 319 318 315 311 306 305 304 300 297 301 302 305 305 305 306 303 308 308 304 307 311 308 303 302 300 303 303 303 299 297 295 293 295 289 299 303 307 305 306 303 303 305
316 317 319 319 316 314 305 306 304 301 297 303 303 304 303 304 304 304 306 308 310 310 304 298 295 295 297 300 301 300 300 300 296 293 290 295 302 305 305 303 303 306 306 310
315 316 318 318 316 314 305 305 308 308 302 297 306 302 303 298 298 301 305 310 309 308 299 297 291 291 294 294 297 300 301 300 298 293 291 290 300 307 310 305 297 309 307 308
316 316 317 317 316 315 307 306 312 309 304 303 302 299 299 302 300 298 301 304 304 306 299 295 292 293 298 293 293 294 294 296 296 294 292 298 305 311 311 295 298 311 312 309
315 315 316 316 316 315 309 304 308 306 305 303 307 307 302 302 301 297 301 301 301 300 297 297 296 295 297 295 297 294 294 292 293 296 293 292 310 310 302 304 308 312 313 315
315 315 315 315 315 315 312 301 308 310 306 304 308 311 312 310 309 302 300 299 299 302 298 298 299 300 299 295 294 303 296 298 296 298 298 306 310 309 311 310 309 312 321 324
315 314 314 314 313 313 311 305 303 304 300 300 299 302 308 309 312 312 300 301 304 302 305 301 301 297 303 298 297 299 302 305 300 301 303 308 312 314 316 317 316 314 325 327
314 314 313 313 313 312 311 301 303 302 305 300 299 308 306 309 307 308 311 309 306 303 302 301 300 299 303 301 303 300 304 304 301 301 305 309 313 316 316 321 327 327 328 327
314 313 313 313 312 311 308 302 302 306 303 298 297 303 305 306 304 306 308 308 304 301 297 296 295 300 301 301 301 299 306 303 300 300 306 307 309 316 319 319 323 326 325 324
313 313 313 313 312 310 301 299 309 310 309 302 295 299 302 306 308 310 310 309 306 304 301 298 299 303 302 295 294 301 306 309 309 307 311 312 314 317 320 317 324 328 327 325
312 312 312 312 310 302 297 299 308 308 307 303 295 294 302 306 306 306 305 307 305 304 303 300 302 302 301 296 295 303 306 309 312 313 313 310 314 315 320 320 320 325 326 323
310 310 310 310 309 307 302 305 308 308 303 302 295 293 296 306 302 300 304 303 301 301 301 300 298 298 298 295 302 305 307 309 309 313 315 313 315 316 318 319 323 325 321 320
310 310 310 303 299 300 308 316 310 305 301 297 298 293 290 301 298 299 299 300 294 299 297 297 299 296 294 299 299 301 304 305 307 309 311 315 315 316 316 317 323 322 319 317
310 303 300 299 306 315 314 305 304 303 304 298 294 295 291 300 301 300 301 301 294 295 298 300 300 296 300 305 306 304 306 309 310 307 310 312 314 316 315 316 318 321 319 317
305 299 296 305 309 309 306 301 299 299 295 296 298 297 296 306 299 299 303 298 297 295 299 299 298 297 303 309 309 311 311 309 313 315 315 314 315 316 315 318 321 321 320 318
301 301 303 304 299 302 299 297 300 298 292 300 298 300 301 305 306 300 301 297 299 293 305 301 297 300 305 308 310 313 313 309 315 318 318 319 319 319 317 316 317 318 321 321
303 301 299 298 299 290 293 291 295 298 304 305 304 301 304 304 304 300 299 295 295 303 298 298 301 305 307 310 311 313 314 309 313 318 320 320 321 321 319 317 317 317 320 323
298 297 289 295 294 294 293 297 300 303 305 305 304 303 303 304 300 300 295 299 300 294 294 297 302 305 308 311 313 313 312 311 312 317 318 318 319 318 320 320 318 318 320 322
298 298 289 291 297 301 304 305 305 307 308 304 305 304 305 302 299 300 299 296 294 298 298 303 306 309 311 311 313 313 311 312 313 315 317 317 319 319 318 320 318 320 321 321
299 296 292 296 298 299 299 299 302 302 306 304 304 303 301 299 300 298 296 295 295 299 304 308 311 311 312 312 312 312 314 314 315 316 316 317 319 318 317 318 317 318 318 319
296 293 296 295 298 297 298 297 302 302 300 296 299 299 299 303 299 297 302 296 301 306 308 311 312 312 313 312 313 316 317 316 318 319 317 316 319 318 317 316 316 318 320 320
Wind_Speed
20 21 23 22 23 26 9 4 4 3 2 5 2 2 4 4 5 5 8 5 10 6 3 4 5 7 3 5 7 11 11 6 6 12 4 5 7 6 6 7 4 1 4 8
21 21 22 21 19 14 5 3 4 5 4 2 3 6 5 4 3 5 3 4 6 6 7 2 4 2 4 7 1 8 7 3 2 8 8 3 3 4 6 5 4 6 6 7
20 21 22 19 19 15 2 2 4 6 6 1 3 5 5 6 7 6 5 4 3 1 4 2 3 2 4 5 3 2 9 5 8 9 9 5 3 4 4 6 5 4 7 4
19 19 19 19 20 19 2 3 1 2 4 4 4 2 4 6 8 6 5 3 4 4 4 4 4 2 5 5 9 5 4 5 4 5 7 5 4 4 8 5 5 7 6 10
19 18 18 17 19 18 4 3 4 5 2 4 6 5 5 6 6 3 8 6 5 5 4 3 3 2 2 3 7 6 6 2 4 3 4 3 4 5 2 1 3 6 3 7
17 18 18 14 17 11 3 3 3 2 3 4 2 2 5 6 7 5 5 6 4 1 5 7 7 6 4 6 2 2 3 3 4 5 2 2 3 7 6 5 5 9 6 12
16 17 14 13 13 9 0 1 1 3 4 2 1 5 6 8 7 5 6 7 5 4 7 7 3 3 4 6 7 5 3 3 3 3 2 5 9 2 6 8 5 7 3 7
16 16 15 12 10 11 1 2 2 1 3 3 8 6 4 8 6 4 4 4 6 9 5 3 4 5 6 3 3 4 2 5 2 2 3 6 3 4 7 8 9 6 9 6
15 14 13 10 10 11 2 2 2 2 0 4 2 4 5 3 4 6 5 5 7 6 2 3 5 5 5 4 1 5 5 4 5 3 4 8 9 6 7 2 4 3 3 8
15 13 13 12 11 10 2 3 2 2 3 5 3 4 2 3 2 3 5 9 8 4 4 2 3 4 3 5 6 2 3 2 3 4 5 7 6 7 4 5 10 6 6 5
14 11 12 11 10 10 4 4 2 1 3 7 7 5 5 2 2 3 4 7 4 4 4 2 2 1 3 3 2 2 5 4 4 2 2 6 4 1 6 6 7 3 4 5
10 10 10 10 10 10 6 3 3 2 4 7 4 11 13 15 13 3 3 3 0 4 3 2 1 1 2 1 3 4 1 6 4 7 6 5 5 1 3 5 4 3 7 5
8 8 9 10 9 9 6 3 3 3 2 6 4 5 6 4 13 11 5 4 6 4 5 3 2 2 2 2 4 3 4 3 2 4 4 3 4 6 7 4 3 3 3 11
7 7 8 9 10 9 7 2 1 1 3 4 8 3 10 5 6 10 16 15 2 2 2 2 3 2 3 4 4 3 5 3 0 5 8 5 5 6 6 7 13 8 5 5
6 7 9 9 11 11 6 3 3 3 0 4 8 12 7 8 6 12 14 14 6 1 1 3 4 2 1 2 2 5 5 6 3 6 6 3 7 3 9 2 7 8 6 6
7 8 9 10 9 11 3 2 2 1 1 3 5 5 7 8 4 7 4 2 3 3 4 4 4 5 5 4 4 6 9 6 8 5 4 7 7 6 5 6 5 12 8 7
7 8 8 8 8 2 1 2 1 2 4 2 6 6 6 6 3 3 3 3 0 2 1 2 3 3 5 3 9 6 6 7 7 8 3 6 6 6 4 2 4 4 8 7
8 10 10 9 10 5 4 3 8 5 2 1 3 6 6 6 3 4 3 3 4 2 2 1 3 1 3 7 9 15 15 16 12 10 10 9 6 3 5 3 3 9 10 10
10 12 11 3 1 1 1 5 7 1 3 2 2 2 5 5 2 2 4 2 3 2 2 3 3 3 7 6 5 7 9 13 18 18 10 12 11 13 4 5 4 7 8 10
11 2 2 1 1 6 5 1 1 0 1 0 4 2 5 1 2 2 3 2 2 3 5 1 4 5 7 11 9 8 13 10 9 5 7 8 10 14 8 8 6 7 10 10
1 2 2 2 8 0 2 1 3 2 3 3 4 4 3 1 2 3 1 3 3 4 3 3 3 4 3 3 9 11 12 13 9 8 6 9 7 6 5 5 6 5 8 8
1 2 3 2 2 2 2 3 3 4 5 4 3 4 5 2 1 1 2 3 2 5 3 4 3 3 4 8 13 17 14 10 10 8 8 7 5 5 5 5 6 8 9 9
0 1 2 1 1 0 4 4 3 2 3 3 3 3 2 1 1 2 2 3 4 5 3 4 3 7 10 11 12 16 16 7 10 6 5 5 5 6 7 10 7 8 9 10
2 2 3 4 3 5 4 2 2 5 4 4 3 3 2 2 1 1 3 3 3 3 4 4 3 10 14 13 9 11 11 5 7 6 6 6 7 6 6 7 5 7 10 9
3 3 4 6 5 3 3 3 3 4 3 1 1 2 2 1 2 2 3 3 5 4 4 5 10 16 14 9 8 7 6 4 4 5 7 6 7 7 6 6 3 7 7 10
3 4 3 4 2 3 3 2 4 3 2 1 1 2 1 2 2 2 3 4 3 4 5 8 13 16 10 6 2 4 3 3 3 3 1 3 7 6 3 5 1 6 8 6
4 5 3 3 4 5 4 3 4 1 2 1 1 2 0 3 2 3 3 3 4 6 6 6 12 11 10 8 7 7 5 8 6 6 6 1 2 7 7 7 5 6 6 6
Wind_Direction
342 342 341 340 341 339 15 355 59 293 62 47 14 168 212 287 278 280 240 211 210 228 233 230 225 205 239 283 157 165 206 153 220 229 283 182 151 177 134 124 227 177 158 271
343 342 338 339 340 4 327 21 274 303 90 85 332 307 294 248 293 269 238 254 233 218 198 230 209 260 265 310 211 171 178 227 86 345 356 11 175 191 120 111 80 190 144 255
343 339 345 339 336 344 130 39 8 332 38 77 84 350 285 322 311 274 326 265 6 29 223 292 240 283 295 345 15 17 112 128 167 188 203 164 174 166 168 124 125 180 222 218
343 338 340 340 337 346 113 28 12 168 331 337 345 269 347 338 358 334 323 344 12 242 45 15 8 332 318 328 344 7 89 161 165 245 172 172 175 204 168 169 205 153 226 192
349 342 343 344 345 342 62 47 27 352 294 315 341 3 358 354 341 278 331 3 330 48 111 157 272 345 325 281 331 26 343 178 127 246 304 194 163 222 226 246 186 283 170 238
339 346 350 5 4 2 44 326 340 89 301 344 19 44 323 355 344 294 47 317 320 334 349 299 256 200 242 241 255 312 11 99 85 230 265 85 6 224 213 210 203 154 159 224
338 348 357 9 20 32 14 279 55 45 286 331 339 342 325 340 316 262 316 349 2 285 324 277 262 288 280 262 261 191 147 84 94 235 79 210 234 236 217 212 237 187 175 198
342 346 351 2 10 10 18 295 67 56 291 287 293 357 327 314 308 287 277 331 252 306 297 44 26 339 346 261 281 246 187 116 108 163 196 279 299 233 188 178 246 205 178 182
337 343 345 357 5 2 37 279 226 277 294 260 9 328 305 303 312 327 282 310 303 10 54 91 168 210 207 268 289 48 83 69 130 128 173 217 227 335 5 87 261 220 207 168
335 341 345 354 4 359 9 285 308 268 258 267 186 221 215 300 337 269 300 325 335 15 11 87 171 244 239 203 189 221 29 25 179 169 211 276 244 273 278 118 236 164 156 166
332 341 342 354 357 356 19 274 284 54 281 273 227 255 198 270 171 225 301 343 344 351 52 72 288 189 282 317 246 218 161 148 206 138 185 259 206 213 160 219 298 225 143 149
330 337 341 351 358 359 14 306 315 339 220 257 239 249 251 228 216 153 259 232 26 253 65 354 326 308 10 284 258 342 193 181 212 175 220 261 313 324 228 201 212 228 135 139
323 329 335 344 346 350 10 283 292 350 320 293 335 241 257 225 223 189 185 259 206 246 186 176 225 258 125 261 263 324 315 154 193 2 229 227 302 281 270 118 102 354 125 137
321 322 329 337 331 331 344 271 241 122 276 290 282 293 285 225 190 201 214 234 4 91 74 226 240 200 169 210 227 180 227 345 49 277 288 306 270 267 271 73 86 69 78 124
312 319 325 328 325 323 307 215 235 213 235 301 285 310 256 274 234 226 212 223 227 195 200 156 227 234 133 221 114 223 194 210 170 234 232 220 255 269 302 111 118 134 137 118
317 314 323 317 322 342 346 12 70 135 356 283 304 286 297 314 32 71 78 198 183 165 161 214 240 244 154 224 234 233 215 215 187 226 215 231 264 275 266 297 164 157 152 146
312 310 314 309 312 56 191 231 304 200 8 283 305 310 280 301 17 12 1 6 26 173 223 225 212 241 139 204 241 221 249 234 225 231 214 279 235 261 218 261 324 148 114 110
304 302 300 295 292 273 282 253 254 177 199 249 282 275 329 358 354 333 2 338 5 315 257 317 197 313 188 246 262 235 226 252 250 223 200 224 269 252 222 259 270 169 149 156
300 301 307 28 49 244 260 345 123 152 141 270 278 283 272 350 334 282 336 54 327 292 244 248 121 234 226 240 254 244 224 212 229 247 215 226 240 263 191 227 186 181 177 166
304 349 33 312 215 308 334 70 197 301 278 144 253 227 267 353 333 297 324 32 252 279 243 165 209 249 254 291 292 271 276 249 226 199 224 212 229 233 200 202 198 187 184 160
17 347 263 322 320 297 219 229 200 144 242 214 233 214 252 314 232 280 237 299 276 268 264 220 231 252 219 270 274 275 293 246 232 215 219 193 204 233 175 167 204 200 179 168
221 275 293 307 324 229 263 228 179 201 236 197 210 233 204 228 210 254 266 268 277 256 350 248 242 247 241 322 317 317 310 246 209 205 212 214 177 218 204 173 203 208 214 200
131 244 256 208 197 84 221 218 220 237 203 222 216 264 213 155 191 235 274 263 250 336 255 284 288 276 302 308 314 311 317 208 201 187 199 229 226 218 215 212 214 211 205 188
239 226 263 216 202 241 203 221 287 254 239 253 210 236 219 175 189 245 256 261 304 262 258 238 334 290 292 292 283 293 305 269 177 174 202 249 266 220 222 234 212 200 199 175
253 208 240 231 243 269 273 242 234 252 266 135 265 245 168 133 272 223 288 266 265 276 309 290 294 288 297 269 264 272 298 329 344 200 195 198 218 241 248 237 221 198 194 165
240 231 270 256 293 260 279 284 250 239 228 112 226 247 192 218 234 252 230 289 286 294 303 311 306 324 6 12 284 286 302 332 352 105 145 260 218 215 197 107 301 129 109 88
234 248 227 256 277 253 265 243 255 195 71 271 327 273 146 143 216 238 221 252 269 299 307 307 312 334 338 334 353 15 51 27 346 128 140 189 192 159 128 125 229 78 96 104